Погода в Старом Ибрайкино

Россия / Республика Татарстан     54°51′37″N   51°01′47″E
темп.,
°C
ветер,
м/с
пор.,
м/с
влажн.,
%
обл.,
%
осадки,
мм/ч
давл.,
гПа
погр.,
м
6 марта, сб
сб600:00−13юз349622 0.0 101039
03:00−14юз349615 0.0 101144
06:00−11юз489583 0.3 1011268
09:00−10з489591 0.3 1012342
12:00−8зсз5790100 0.1 1013584
15:00−10зсз4690100 0.1 1013585
18:00−14з349588 0.0 101429
21:00−17з229470 0.0 101420
7 марта, вс
вс700:00−18юз229620 0.0 101320
03:00−19ююз239612 0.0 101320
06:00−19ююз239654 0.0 101220
09:00−15ююз239652 0.0 1012131
12:00−11ююз359598 0.1 1011319
15:00−10ююз479699 0.1 1009283
18:00−14ю479794 0.1 1008118
21:00−11ююз6139496 0.1 1006441
8 марта, пн
пн800:00−9ю71494100 0.5 1002680
03:00−7ююз81494100 1.9 999925
06:00−5юз71295100 2.1 998765
09:00−8зюз5108567 2.2 1000357
12:00−6ююз698367 0.0 1001498
15:00−5ю5108259 0.0 1000627
18:00−5ююв4119592 0.4 996514
21:00−5зюз9148596 2.3 995630
9 марта, вт
вт900:00−10юз91693100 0.1 996638
03:00−8з71493100 0.6 999671
06:00−11зюз61292100 0.2 1002521
09:00−10з61091100 0.3 1005607
12:00−9з6889100 0.1 1007694
15:00−10з5789100 0.2 1009753
18:00−14зсз3495100 0.1 101068
21:00−16з339798 0.1 101233
10 марта, ср
ср1000:00−17з339894 0.1 101259
03:00−18зсз349895 0.1 101294
06:00−18зсз349799 0.1 101391
09:00−14зсз469399 0.2 1014424
12:00−13сз5689100 0.1 1015626
15:00−14сз5788100 0.1 1016705
18:00−18сз3496100 0.1 101777
21:00−21сз339998 0.1 101943